GW2857 Weather Reports


time (UTC)temp
C
wind
direction
speed
KPH
gust
KPH
rain 1hr
cm
rain 24hr
cm
rain mn
cm
humidity
%
barometer
mb
20260510123015 11 135 4.8 6.4 0.00 0.08 0.03 89 1009.3
20260510122516 11 180 3.2 6.4 0.00 0.08 0.03 89 1009.3
20260510122015 11 180 3.2 8.0 0.00 0.08 0.03 89 1009.5
20260510121515 11 180 3.2 8.0 0.00 0.08 0.03 89 1009.7
20260510121015 11 180 1.6 4.8 0.00 0.08 0.03 89 1009.7
20260510120515 11 203 3.2 9.7 0.00 0.08 0.03 89 1009.9
20260510120015 11 203 3.2 6.4 0.00 0.08 0.03 89 1010.0
20260510115515 11 158 1.6 4.8 0.00 0.08 0.03 89 1009.8
20260510115015 11 0.0 4.8 0.00 0.08 0.03 89 1009.7
20260510114515 11 158 4.8 8.0 0.00 0.08 0.03 89 1009.4
20260510114016 11 180 3.2 6.4 0.00 0.08 0.03 89 1009.3
20260510113515 11 180 3.2 6.4 0.00 0.08 0.03 88 1009.4
20260510113015 11 0.0 4.8 0.00 0.08 0.03 88 1009.4
20260510112515 11 158 3.2 6.4 0.00 0.08 0.03 88 1009.5
20260510112115 11 0.0 3.2 0.00 0.08 0.03 88 1009.3
20260510111516 11 158 1.6 6.4 0.00 0.08 0.03 88 1009.3
20260510111015 11 0.0 3.2 0.00 0.08 0.03 88 1009.3
20260510110515 11 0.0 4.8 0.00 0.08 0.03 89 1009.2
20260510110035 11 0.0 0.0 0.00 0.08 0.03 89 1009.2
20260510105515 11 0.0 3.2 0.00 0.08 0.03 89 1009.0
20260510105055 11 0.0 1.6 0.00 0.08 0.03 89 1008.6
20260510104515 11 158 3.2 6.4 0.00 0.08 0.03 89 1008.7
20260510104015 11 0.0 1.6 0.00 0.08 0.03 89 1008.8
20260510103516 11 0.0 1.6 0.00 0.08 0.03 89 1008.8
20260510103015 11 180 1.6 8.0 0.00 0.08 0.03 89 1008.8
20260510102515 11 180 3.2 6.4 0.00 0.08 0.03 89 1008.7
20260510102015 11 158 4.8 6.4 0.00 0.08 0.03 89 1008.6
20260510101515 11 180 1.6 6.4 0.00 0.08 0.03 89 1008.3
20260510101015 10 180 1.6 6.4 0.00 0.08 0.03 89 1008.2
20260510100515 10 135 3.2 6.4 0.00 0.08 0.03 89 1008.0
20260510100016 10 158 3.2 6.4 0.00 0.08 0.03 89 1007.9
20260510095515 10 180 4.8 8.0 0.00 0.08 0.03 89 1008.0
20260510095015 10 180 4.8 8.0 0.00 0.08 0.03 89 1008.1
20260510094515 10 180 4.8 8.0 0.00 0.08 0.03 89 1008.1
20260510094015 10 180 1.6 3.2 0.00 0.08 0.03 88 1008.2
20260510093516 11 203 3.2 6.4 0.00 0.08 0.03 88 1008.2
20260510093015 11 180 3.2 6.4 0.00 0.08 0.03 88 1008.0
20260510092515 11 203 3.2 4.8 0.00 0.08 0.03 88 1007.9
20260510092015 11 158 1.6 4.8 0.00 0.08 0.03 89 1007.7
20260510091515 11 203 1.6 3.2 0.00 0.08 0.03 88 1007.7
20260510091015 11 158 1.6 3.2 0.00 0.08 0.03 89 1007.6
20260510090535 11 180 3.2 6.4 0.00 0.08 0.03 89 1007.6
20260510090015 11 158 1.6 3.2 0.00 0.08 0.03 89 1007.5
20260510085536 10 180 1.6 4.8 0.00 0.08 0.03 89 1007.5
20260510085035 10 203 1.6 4.8 0.00 0.08 0.03 90 1007.5
20260510084515 10 0.0 0.0 0.00 0.08 0.03 90 1007.5
20260510084015 11 0.0 0.0 0.03 0.08 0.03 89 1007.4
20260510083535 11 0.0 1.6 0.03 0.08 0.03 89 1007.7
20260510083015 11 0.0 0.0 0.03 0.08 0.03 89 1007.6
20260510082516 11 135 1.6 3.2 0.03 0.08 0.03 89 1007.4
20260510082015 11 0.0 1.6 0.03 0.08 0.03 89 1007.3
20260510081515 11 180 1.6 6.4 0.03 0.08 0.03 89 1007.3
20260510081015 11 135 1.6 4.8 0.03 0.08 0.03 89 1007.4
20260510080515 11 135 1.6 6.4 0.03 0.08 0.03 89 1007.6
20260510080015 11 113 1.6 6.4 0.03 0.08 0.03 89 1007.3
20260510075515 11 0.0 4.8 0.03 0.08 0.03 89 1007.7
20260510075016 11 158 3.2 6.4 0.03 0.08 0.03 88 1007.8
20260510074515 11 135 3.2 6.4 0.03 0.08 0.03 88 1007.8
20260510074015 11 135 1.6 6.4 0.00 0.05 0.00 87 1007.9
20260510073515 11 180 4.8 8.0 0.00 0.05 0.00 87 1007.9
20260510073035 11 158 4.8 8.0 0.00 0.05 0.00 87 1007.9
20260510072516 11 203 4.8 8.0 0.00 0.05 0.00 86 1008.1
20260510072015 11 180 1.6 4.8 0.00 0.05 0.00 86 1008.1
20260510071515 11 180 3.2 4.8 0.00 0.05 0.00 86 1008.0
20260510071015 11 158 1.6 4.8 0.00 0.05 0.00 86 1008.0
20260510070515 11 180 3.2 6.4 0.00 0.05 0.00 85 1008.0
20260510070015 11 180 1.6 3.2 0.00 0.05 0.00 85 1007.9
20260510065515 11 158 1.6 6.4 0.00 0.05 0.00 85 1008.0
20260510065015 11 180 1.6 4.8 0.00 0.05 0.00 84 1008.0
20260510064515 11 180 3.2 6.4 0.00 0.05 0.00 84 1008.1
20260510064035 11 180 3.2 6.4 0.00 0.05 0.00 83 1008.2
20260510063515 11 180 4.8 6.4 0.00 0.05 0.00 83 1008.1
20260510063035 11 203 3.2 6.4 0.00 0.05 0.00 83 1008.1
20260510062515 11 180 1.6 6.4 0.00 0.05 0.00 83 1008.1
20260510062015 11 0.0 1.6 0.00 0.05 0.00 83 1008.0
20260510061517 11 180 1.6 6.4 0.00 0.05 0.00 83 1007.8
20260510061037 11 180 3.2 4.8 0.00 0.05 0.00 83 1007.8
20260510060517 11 0.0 3.2 0.00 0.05 0.00 83 1007.9
20260510060017 11 180 1.6 6.4 0.00 0.05 0.00 83 1007.8
20260510055517 11 135 3.2 6.4 0.00 0.05 0.00 83 1007.8
20260510055016 11 180 3.2 4.8 0.00 0.05 0.00 83 1007.8
20260510054517 11 180 3.2 8.0 0.00 0.05 0.00 84 1007.6
20260510054017 11 135 3.2 6.4 0.00 0.05 0.00 83 1007.7
20260510053517 11 180 3.2 6.4 0.00 0.05 0.00 83 1007.8
20260510053017 11 158 3.2 6.4 0.00 0.05 0.00 83 1007.9
20260510052537 11 180 1.6 4.8 0.00 0.05 0.00 83 1008.0
20260510052016 11 180 4.8 9.7 0.00 0.05 0.00 83 1008.0
20260510051537 11 158 3.2 8.0 0.00 0.05 0.00 83 1008.0
20260510051017 11 180 4.8 8.0 0.00 0.05 0.00 83 1008.0
20260510050517 11 180 3.2 6.4 0.00 0.05 0.00 84 1008.1
20260510050017 11 203 1.6 4.8 0.00 0.05 0.00 84 1008.2
20260510045516 11 203 1.6 3.2 0.00 0.05 0.00 84 1008.2
20260510045036 11 135 1.6 4.8 0.00 0.05 0.00 84 1008.1
20260510044517 11 180 4.8 6.4 0.00 0.05 0.00 83 1008.0
20260510044037 11 158 3.2 8.0 0.00 0.05 0.00 84 1007.9
20260510043517 11 158 4.8 8.0 0.00 0.05 0.00 84 1007.9
20260510043017 11 203 3.2 6.4 0.00 0.05 0.00 84 1007.8
20260510042517 11 180 3.2 8.0 0.00 0.05 0.00 83 1007.8
20260510042015 11 158 3.2 6.4 0.00 0.05 0.00 83 1007.8
20260510041537 11 180 3.2 4.8 0.00 0.05 0.00 83 1007.8
20260510041037 11 180 1.6 8.0 0.00 0.05 0.00 83 1007.8
20260510040517 11 158 3.2 8.0 0.00 0.05 0.00 83 1007.6
20260510040016 11 203 3.2 8.0 0.00 0.05 0.05 83 1007.5
20260510035515 11 180 4.8 8.0 0.00 0.05 0.05 83 1007.4
20260510035015 11 203 4.8 11.3 0.00 0.05 0.05 82 1007.5
20260510034515 11 180 3.2 8.0 0.00 0.05 0.05 82 1007.6
20260510034015 11 180 1.6 4.8 0.00 0.05 0.05 82 1007.7
20260510033516 11 158 3.2 4.8 0.00 0.05 0.05 82 1007.8
20260510033015 11 180 4.8 8.0 0.00 0.05 0.05 82 1007.8
20260510032515 11 158 3.2 8.0 0.00 0.05 0.05 82 1007.9
20260510032015 11 158 4.8 8.0 0.00 0.05 0.05 81 1008.0
20260510031515 11 180 6.4 19.3 0.00 0.05 0.05 81 1008.0
20260510031015 11 180 4.8 11.3 0.00 0.05 0.05 81 1007.9
20260510030515 11 180 4.8 8.0 0.00 0.05 0.05 81 1007.8
20260510030016 11 203 3.2 6.4 0.00 0.05 0.05 81 1007.9
20260510025515 11 203 3.2 6.4 0.00 0.05 0.05 81 1007.9
20260510025015 11 158 1.6 6.4 0.00 0.05 0.05 81 1007.9
20260510024515 11 180 3.2 6.4 0.00 0.05 0.05 81 1007.8
20260510024016 11 180 3.2 4.8 0.00 0.05 0.05 80 1007.8
20260510023515 11 180 3.2 8.0 0.00 0.05 0.05 80 1007.8
20260510023015 11 135 3.2 6.4 0.00 0.05 0.05 80 1007.8
20260510022515 11 180 4.8 9.7 0.00 0.05 0.05 80 1007.8
20260510022015 11 135 4.8 9.7 0.00 0.05 0.05 80 1007.9
20260510021515 11 180 3.2 6.4 0.00 0.05 0.05 80 1007.9
20260510021015 11 180 1.6 6.4 0.00 0.05 0.05 81 1008.0
20260510020515 11 203 4.8 17.7 0.00 0.05 0.05 81 1007.9
20260510020015 11 135 3.2 6.4 0.00 0.05 0.05 81 1008.0
20260510015516 11 180 3.2 6.4 0.00 0.05 0.05 81 1008.0
20260510015035 11 203 1.6 8.0 0.00 0.05 0.05 81 1008.1
20260510014515 11 180 3.2 6.4 0.00 0.05 0.05 82 1008.2
20260510014015 11 0.0 3.2 0.00 0.05 0.05 82 1008.1
20260510013515 11 180 1.6 4.8 0.00 0.05 0.05 83 1008.0
20260510013016 11 0.0 4.8 0.00 0.05 0.05 83 1008.0
20260510012515 11 0.0 4.8 0.00 0.05 0.05 83 1008.1
20260510012035 11 135 3.2 6.4 0.00 0.05 0.05 83 1008.3
20260510011537 11 135 1.6 6.4 0.00 0.05 0.05 83 1008.2
20260510011017 11 180 3.2 8.0 0.00 0.05 0.05 83 1008.1
20260510010517 11 158 4.8 6.4 0.00 0.05 0.05 83 1008.2
20260510010017 11 203 1.6 6.4 0.00 0.05 0.05 83 1008.2
20260510005516 11 203 1.6 6.4 0.00 0.05 0.05 82 1008.2
20260510005056 11 0.0 1.6 0.00 0.05 0.05 82 1008.2
20260510004517 11 180 3.2 9.7 0.00 0.05 0.05 83 1008.4
20260510004017 11 180 3.2 6.4 0.00 0.05 0.05 83 1008.2
20260510003516 11 158 3.2 6.4 0.00 0.05 0.05 82 1008.1
20260510003017 11 203 3.2 6.4 0.00 0.05 0.05 82 1008.1
20260510002517 11 158 4.8 8.0 0.00 0.05 0.05 82 1008.1
20260510002017 11 180 3.2 8.0 0.00 0.05 0.05 83 1008.1
20260510001517 11 180 3.2 6.4 0.00 0.05 0.05 83 1008.0
20260510001017 11 0.0 1.6 0.00 0.05 0.05 83 1008.0
20260510000517 11 158 1.6 4.8 0.00 0.05 0.05 83 1007.9
20260510000017 11 0.0 3.2 0.00 0.05 0.05 84 1007.8
20260509235517 11 0.0 0.0 0.00 0.05 0.05 84 1007.9
20260509235017 11 203 1.6 6.4 0.00 0.05 0.05 84 1007.8
20260509234518 11 0.0 4.8 0.00 0.05 0.05 83 1007.8
20260509234017 11 158 3.2 6.4 0.00 0.05 0.05 84 1007.8
20260509233517 11 0.0 3.2 0.00 0.05 0.05 84 1007.9
20260509233016 10 0.0 3.2 0.00 0.05 0.05 85 1007.7
20260509232517 10 0.0 4.8 0.00 0.05 0.05 85 1007.7
20260509232017 10 203 1.6 4.8 0.00 0.05 0.05 85 1007.6
20260509231517 10 203 3.2 6.4 0.00 0.05 0.05 86 1007.5
20260509231037 10 158 3.2 6.4 0.00 0.05 0.05 86 1007.5
20260509230517 10 180 3.2 6.4 0.00 0.05 0.05 86 1007.5
20260509230037 10 0.0 1.6 0.00 0.05 0.05 86 1007.5
20260509225516 10 158 1.6 6.4 0.00 0.05 0.05 86 1007.6
20260509225017 10 0.0 0.0 0.00 0.05 0.05 87 1007.7
20260509224517 10 0.0 1.6 0.00 0.05 0.05 87 1007.7
20260509224017 10 0.0 0.0 0.00 0.05 0.05 87 1007.7
20260509223537 10 0.0 0.0 0.00 0.05 0.05 87 1007.7
20260509223017 10 0.0 1.6 0.00 0.05 0.05 87 1007.7
20260509222516 10 203 1.6 4.8 0.00 0.05 0.05 88 1007.7
20260509222017 10 158 1.6 8.0 0.00 0.05 0.05 88 1007.8
20260509221537 10 180 1.6 8.0 0.00 0.05 0.05 88 1007.8
20260509221016 10 158 3.2 6.4 0.00 0.05 0.05 89 1007.9
20260509220517 10 158 3.2 8.0 0.00 0.05 0.05 89 1007.9
20260509220016 10 203 3.2 6.4 0.00 0.05 0.05 90 1007.9
20260509215516 9 135 3.2 6.4 0.00 0.05 0.05 90 1008.0
20260509215016 9 0.0 3.2 0.00 0.05 0.05 91 1008.1
20260509214537 9 180 3.2 8.0 0.00 0.05 0.05 91 1008.2
20260509214016 9 0.0 3.2 0.00 0.05 0.05 91 1008.2
20260509213537 9 0.0 1.6 0.00 0.05 0.05 91 1008.2
20260509213017 9 0.0 1.6 0.00 0.05 0.05 91 1008.3
20260509212557 9 0.0 1.6 0.00 0.05 0.05 91 1008.4
20260509212016 9 0.0 3.2 0.00 0.05 0.05 90 1008.5
20260509211516 9 0.0 1.6 0.00 0.05 0.05 89 1008.6
20260509211017 10 158 1.6 8.0 0.00 0.05 0.05 88 1008.6
20260509210517 10 0.0 1.6 0.00 0.05 0.05 88 1008.6
20260509210016 10 158 1.6 6.4 0.00 0.05 0.05 87 1008.6
20260509205536 10 180 1.6 3.2 0.00 0.05 0.05 87 1008.6
20260509205016 10 180 1.6 6.4 0.00 0.05 0.05 86 1008.6
20260509204516 10 203 3.2 6.4 0.00 0.05 0.05 86 1008.7
20260509204016 10 113 1.6 4.8 0.00 0.05 0.05 85 1008.7
20260509203516 10 180 1.6 4.8 0.00 0.05 0.05 84 1008.7
20260509203017 10 0.0 3.2 0.00 0.05 0.05 84 1008.7
20260509202516 10 203 1.6 6.4 0.00 0.05 0.05 84 1008.8
20260509202016 10 180 1.6 4.8 0.00 0.05 0.05 85 1008.8
20260509201516 10 203 1.6 4.8 0.00 0.05 0.05 87 1008.8
20260509201016 10 0.0 3.2 0.00 0.05 0.05 88 1008.8
20260509200536 10 0.0 1.6 0.00 0.05 0.05 89 1008.8
20260509200016 10 0.0 0.0 0.00 0.05 0.05 89 1008.9
20260509195516 10 0.0 4.8 0.00 0.05 0.05 89 1008.9
20260509195016 10 0.0 0.0 0.00 0.05 0.05 89 1008.9
20260509194516 10 0.0 1.6 0.00 0.05 0.05 89 1008.9
20260509194021 10 0.0 0.0 0.00 0.05 0.05 89 1009.0
20260509193516 9 0.0 3.2 0.03 0.05 0.05 88 1009.0
20260509193037 9 0.0 1.6 0.03 0.05 0.05 89 1009.1
20260509192517 9 0.0 3.2 0.03 0.05 0.05 89 1009.2
20260509192017 9 0.0 0.0 0.03 0.05 0.05 89 1009.2
20260509191516 9 0.0 0.0 0.05 0.05 0.05 89 1009.2
20260509191016 9 0.0 0.0 0.05 0.05 0.05 89 1009.3
20260509190516 9 0.0 0.0 0.05 0.05 0.05 89 1009.4
20260509190016 9 0.0 0.0 0.05 0.05 0.05 89 1009.4
20260509185516 9 0.0 0.0 0.05 0.05 0.05 89 1009.4
20260509185017 9 0.0 0.0 0.05 0.05 0.05 89 1009.5
20260509184516 9 0.0 0.0 0.05 0.05 0.05 89 1009.5
20260509184016 9 0.0 0.0 0.05 0.05 0.05 88 1009.6
20260509183516 9 0.0 0.0 0.03 0.03 0.03 87 1009.6
20260509183016 9 0.0 0.0 0.03 0.03 0.03 86 1009.6
20260509182517 10 0.0 4.8 0.03 0.03 0.03 86 1009.7
20260509182016 10 0.0 3.2 0.03 0.03 0.03 85 1009.7
20260509181537 10 0.0 3.2 0.00 0.00 0.00 84 1009.7
20260509181056 10 225 1.6 6.4 0.00 0.00 0.00 84 1009.7
20260509180516 10 0.0 3.2 0.00 0.00 0.00 83 1009.7
20260509180016 10 0.0 0.0 0.00 0.00 0.00 83 1009.8
20260509175536 10 0.0 0.0 0.00 0.00 0.00 83 1009.9
20260509175036 10 0.0 0.0 0.00 0.00 0.00 83 1010.0
20260509174537 10 0.0 1.6 0.00 0.00 0.00 82 1010.0
20260509174016 10 0.0 1.6 0.00 0.00 0.00 81 1010.0
20260509173516 10 158 1.6 6.4 0.00 0.00 0.00 81 1010.0
20260509173016 10 0.0 3.2 0.00 0.00 0.00 81 1010.1
20260509172516 10 0.0 3.2 0.00 0.00 0.00 80 1010.1
20260509172116 10 203 1.6 4.8 0.00 0.00 0.00 81 1010.2
20260509171516 10 0.0 1.6 0.00 0.00 0.00 81 1010.2
20260509171022 10 0.0 1.6 0.00 0.00 0.00 80 1010.3
20260509170516 10 203 1.6 6.4 0.00 0.00 0.00 80 1010.3
20260509170016 10 0.0 1.6 0.00 0.00 0.00 79 1010.4
20260509165516 10 0.0 1.6 0.00 0.00 0.00 79 1010.5
20260509165016 10 0.0 1.6 0.00 0.00 0.00 79 1010.6
20260509164516 10 0.0 4.8 0.00 0.00 0.00 78 1010.7
20260509164017 10 0.0 4.8 0.00 0.00 0.00 78 1010.7
20260509163516 10 180 1.6 3.2 0.00 0.00 0.00 77 1010.7
20260509163036 10 0.0 1.6 0.00 0.00 0.00 75 1010.6
20260509162516 10 203 1.6 4.8 0.00 0.00 0.00 74 1010.7
20260509162016 10 0.0 4.8 0.00 0.00 0.00 72 1010.8
20260509161516 10 0.0 1.6 0.00 0.00 0.00 70 1010.8
20260509161017 10 203 1.6 8.0 0.00 0.00 0.00 66 1010.9
20260509160516 11 135 1.6 3.2 0.00 0.00 0.00 62 1011.0
20260509160016 11 203 1.6 6.4 0.00 0.00 0.00 58 1011.0
20260509155516 11 158 1.6 4.8 0.00 0.00 0.00 58 1011.0
20260509155016 11 180 1.6 6.4 0.00 0.00 0.00 56 1011.1
20260509154516 11 203 1.6 4.8 0.00 0.00 0.00 51 1011.1
20260509154017 11 0.0 3.2 0.00 0.00 0.00 51 1011.1
20260509153521 12 203 3.2 6.4 0.00 0.00 0.00 50 1011.1
20260509153016 12 180 3.2 6.4 0.00 0.00 0.00 48 1011.2
20260509152516 12 203 1.6 4.8 0.00 0.00 0.00 47 1011.1
20260509152016 12 0.0 1.6 0.00 0.00 0.00 46 1011.1
20260509151516 12 0.0 3.2 0.00 0.00 0.00 47 1011.1
20260509151016 12 158 1.6 6.4 0.00 0.00 0.00 45 1011.2
20260509150517 12 0.0 1.6 0.00 0.00 0.00 44 1011.2
20260509150016 12 0.0 3.2 0.00 0.00 0.00 45 1011.2
20260509145516 12 0.0 6.4 0.00 0.00 0.00 44 1011.2
20260509145016 12 0.0 4.8 0.00 0.00 0.00 43 1011.1
20260509144516 12 225 1.6 4.8 0.00 0.00 0.00 43 1011.2
20260509144016 12 0.0 3.2 0.00 0.00 0.00 43 1011.4
20260509143517 12 0.0 3.2 0.00 0.00 0.00 42 1011.3
20260509143016 12 203 1.6 6.4 0.00 0.00 0.00 41 1011.3
20260509142516 12 0.0 0.0 0.00 0.00 0.00 41 1011.3
20260509142036 12 180 1.6 6.4 0.00 0.00 0.00 40 1011.3
20260509141516 12 0.0 1.6 0.00 0.00 0.00 40 1011.3
20260509141016 12 0.0 0.0 0.00 0.00 0.00 41 1011.3
20260509140516 12 0.0 3.2 0.00 0.00 0.00 40 1011.2
20260509140017 12 0.0 0.0 0.00 0.00 0.00 42 1011.2
20260509135516 12 0.0 3.2 0.00 0.00 0.00 42 1011.3
20260509135016 12 0.0 0.0 0.00 0.00 0.00 43 1011.3
20260509134536 12 0.0 0.0 0.00 0.00 0.00 42 1011.3
20260509134016 12 0.0 3.2 0.00 0.00 0.00 43 1011.2
20260509133516 12 0.0 0.0 0.00 0.00 0.00 43 1011.3
20260509133017 11 203 1.6 4.8 0.00 0.00 0.00 43 1011.5
20260509132515 12 0.0 1.6 0.00 0.00 0.00 43 1011.5
20260509132036 12 0.0 0.0 0.00 0.00 0.00 44 1011.4
20260509131516 11 0.0 0.0 0.00 0.00 0.00 44 1011.5
20260509131015 11 155 0.0 0.0 0.00 0.00 0.00 45 1011.5
20260509130516 11 0.0 0.0 0.00 0.00 0.00 45 1011.6
20260509130016 11 0.0 0.0 0.00 0.00 0.00 49 1011.7
20260509125516 11 0.0 0.0 0.00 0.00 0.00 50 1011.6
20260509125016 10 0.0 0.0 0.00 0.00 0.00 50 1011.7
20260509124516 10 203 1.6 4.8 0.00 0.00 0.00 51 1011.8
20260509124015 10 203 1.6 4.8 0.00 0.00 0.00 52 1011.8
20260509123515 9 180 3.2 6.4 0.00 0.00 0.00 53 1011.8